This is the latest recevied weather packets stored in our database for station/object KJ5JYX. If no packets are shown the sender has not sent any weather packets the latest 10 day(s).
| Time | Temp. | Humidity | Pressure | Rain* | Wind** | Luminosity | Snow |
|---|---|---|---|---|---|---|---|
| 1777905877 | 20° C | 78% | 1015.8 hPa | 0 mm | - | 139 W/m² | - |
| 1777905574 | 20° C | 78% | 1015.9 hPa | 0 mm | - | 100 W/m² | - |
| 1777905271 | 20.56° C | 77% | 1015.6 hPa | 0 mm | - | 142 W/m² | - |
| 1777904968 | 20.56° C | 77% | 1015.7 hPa | 0 mm | - | 173 W/m² | - |
| 1777904666 | 20° C | 78% | 1015.7 hPa | 0 mm | - | 157 W/m² | - |
| 1777904362 | 20° C | 78% | 1015.7 hPa | 0 mm | - | 132 W/m² | - |
| 1777904059 | 20° C | 78% | 1015.5 hPa | 0 mm | - | 99 W/m² | - |
| 1777903756 | 20° C | 79% | 1015.7 hPa | 0 mm | - | 95 W/m² | - |
| 1777903452 | 20° C | 79% | 1015.5 hPa | 0 mm | - | 56 W/m² | - |
| 1777903149 | 19.44° C | 80% | 1015.4 hPa | 0 mm | - | 55 W/m² | - |
| 1777902845 | 19.44° C | 80% | 1015.3 hPa | 0 mm | - | 56 W/m² | - |
| 1777902543 | 19.44° C | 80% | 1015.4 hPa | 0 mm | - | 64 W/m² | - |
| 1777902239 | 18.89° C | 80% | 1015.6 hPa | 0 mm | - | 45 W/m² | - |
| 1777901937 | 18.89° C | 81% | 1015.4 hPa | 0 mm | - | 45 W/m² | - |
| 1777901635 | 18.89° C | 81% | 1015.5 hPa | 0 mm | - | 49 W/m² | - |
| 1777901332 | 18.33° C | 82% | 1015.4 hPa | 0 mm | - | 54 W/m² | - |
| 1777901029 | 18.33° C | 83% | 1015.4 hPa | 0 mm | - | 72 W/m² | - |
| 1777900727 | 17.78° C | 84% | 1015.6 hPa | 0 mm | - | 34 W/m² | - |
| 1777900423 | 17.78° C | 84% | 1015.6 hPa | 0 mm | - | 24 W/m² | - |
| 1777900120 | 17.78° C | 84% | 1015.6 hPa | 0 mm | - | 23 W/m² | - |
| 1777899817 | 17.78° C | 84% | 1015.6 hPa | 0 mm | - | 30 W/m² | - |
| 1777899514 | 17.78° C | 84% | 1015.7 hPa | 0 mm | - | 43 W/m² | - |
| 1777899211 | 17.78° C | 85% | 1015.5 hPa | 0 mm | - | 42 W/m² | - |
| 1777898909 | 17.22° C | 85% | 1015.6 hPa | 0 mm | - | 49 W/m² | - |
| 1777898606 | 17.22° C | 86% | 1015.6 hPa | 0 mm | - | 47 W/m² | - |
* Rain latest hour (hover to see other rain measurements)
** Current wind speed in m/s (hover to see current wind gust speed)